COSMOS 2251 DEB, 40808

Orbit data source: Space-Track

COSMOS 2251 DEB, 40808 is space debris in LEO originally from a launch on Wed, 16 Jun 1993 UTC launched from the Plesetsk Missile And Space Complex (PKMTR). The debris from Iridium 33, an American commercial communications satellite, has been tracked extensively since its accidental collision with the defunct Russian satellite Cosmos 2251 in 2009. This event, occurring at high speed in low Earth orbit (LEO), generated thousands of pieces of space debris, significantly increasing the risk of further collisions. The Iridium 33 debris cloud has impacted space traffic management and orbital debris mitigation strategies, making it a subject of ongoing study in space situational awareness.

Loading next visibility...
Identifier
40808, 1993-036BWM
Orbit
LEO
Country
Flag of CISCIS
Related business
Manufacturer
Unknown
Mission
Spacecraft
Bus & Motor
Unknown
Mass
Unknown
Launch date (UTC)
1993-06-16 (32 years ago)
Launch vehicle
Unknown
Launch site
Plesetsk Missile And Space Complex (PKMTR)
Object type
Payload
Rocket body
Debris
Shape & HBR
Unknown shape, 0.1 m
Radar Cross Section
Small (<0.1 m²)

Expand to show TLE details & history
Last TLE update: 3 days ago

TLE from 3 days ago
0 COSMOS 2251 DEB
1 40808U 93036BWM 25289.24016381  .00010828  00000-0  19736-2 0  9999
2 40808  74.0413 256.3378 0013267 302.0202 121.0278 14.66049930627764
Epoch: 2025-10-16T05:45Z
TLE epoch observation values (Epoch: 2025-10-16T05:45:50.153Z)
Latitude
59.20262°
Longitude
173.3774°
Altitude
688.224 km
Speed
7.516 km/s
True Right ascension
18h 59m 21s
True Declination
59° 02' 59"
Sunlit
Object was in daylight at epoch
Visualization orbit readout
Latitude
Unknown
Longitude
Unknown
Altitude
Unknown
Speed
Unknown
Apparent Right ascension
Unknown
Apparent Declination
Unknown
Sunlit
N/A
Visualization observer readout
Local Sidereal Time
23:38:56
Azimuth
Unknown
Elevation
Unknown
Doppler factor
Unknown
Orbital elements
Apogee altitude
680.649 km
Perigee altitude
661.944 km
Semi-major axis
7,049.434 km
Eccentricity
0.00133
Inclination
74.0413°
RAAN
256.3378°
Arg. of periapsis
302.0202°
True anomaly
121.15796°
Mean anomaly
121.0278°
Eccentric anomaly
121.09289°
Mean motion
3.66701 °/min
Orbital period
98.17 mins
BSTAR
0.0019736

Documentation

Showing up to 5 results
|